EHI
0 0 0 1 1 1 2 1 2 2 2 2 1 0 0 0 0 0 1 1 0 1 2 3 3 2 1 0 0 0 0 0 0 0 0 0 0 0 0 0 0 0 0
0 0 1 2 2 3 4 4 3 3 3 2 1 0 0 0 1 1 2 2 1 1 2 2 2 2 1 0 0 0 0 0 0 0 0 0 0 0 0 0 0 0 0
1 1 1 2 3 5 7 7 4 3 3 3 2 2 2 2 2 3 3 3 2 2 2 2 1 1 0 0 0 0 0 0 0 0 1 1 1 0 0 0 0 0 0
0 0 1 2 4 6 8 7 4 3 4 4 5 5 5 5 4 3 3 3 3 3 3 2 1 0 0 0 0 0 0 0 1 1 2 2 2 1 1 0 0 0 0
0 0 1 2 4 6 7 6 5 4 5 6 6 7 7 6 4 3 2 2 3 3 2 1 1 1 0 0 0 0 0 0 1 2 3 3 3 3 2 1 0 0 0
1 0 1 2 3 4 6 7 7 6 6 6 7 8 8 7 5 3 2 2 3 3 2 0 0 1 0 0 0 0 0 0 1 2 3 3 3 3 3 2 1 0 0
1 0 0 1 1 2 4 7 8 9 8 8 8 9 9 9 7 5 4 3 3 3 2 1 1 2 1 0 0 0 0 0 0 1 2 3 3 3 3 3 2 1 0
1 1 1 1 1 1 3 5 7 9 10 9 8 9 10 10 8 6 5 4 3 3 2 1 2 3 2 0 0 0 0 0 0 1 2 3 3 3 3 3 3 1 0
3 3 4 4 3 2 3 3 5 7 9 9 8 8 9 9 7 5 4 5 4 4 3 3 4 3 2 1 0 0 0 0 1 2 3 3 3 3 3 3 3 2 1
4 5 6 6 5 5 4 3 3 4 6 7 7 7 7 7 6 5 5 5 5 5 5 5 6 5 2 1 1 1 1 1 2 3 3 3 3 3 3 3 2 1 0
4 5 5 6 6 6 4 2 1 2 3 4 5 6 6 6 6 7 7 7 6 6 6 6 7 6 4 3 3 3 2 2 2 3 3 3 3 3 3 3 1 0 0
2 2 3 4 4 4 3 1 0 0 2 3 3 3 4 5 7 8 8 8 8 7 7 7 8 8 6 5 4 4 3 3 3 3 3 3 3 3 3 2 1 0 0
1 0 1 1 2 3 2 1 0 0 1 2 2 3 3 4 6 7 7 7 7 7 7 7 7 9 8 5 4 3 3 3 3 3 3 3 3 3 2 1 0 0 0
0 0 0 0 1 1 1 0 1 1 1 1 3 4 5 4 5 6 5 5 7 7 7 7 7 7 6 4 3 3 3 3 3 3 3 3 3 3 1 0 0 0 0
1 1 0 1 1 1 0 1 2 2 3 3 4 5 6 6 6 6 6 6 7 8 7 7 7 6 4 3 3 3 2 2 3 3 3 3 3 2 1 0 0 0 0
2 2 2 2 2 1 1 3 3 3 4 5 5 6 7 9 10 9 9 8 7 7 6 6 7 6 4 3 3 3 2 2 3 4 4 3 3 2 1 0 0 0 0
3 3 3 3 2 2 3 4 4 4 5 5 5 6 7 10 11 11 10 9 7 5 5 4 5 4 3 2 2 2 2 2 3 4 4 3 2 1 0 0 0 0 0
3 3 3 3 2 2 4 5 3 3 4 5 6 6 7 9 11 11 10 9 7 5 4 3 3 2 1 1 1 0 1 1 1 1 1 1 1 0 0 0 0 0 0
2 2 2 2 1 1 3 4 2 3 4 5 6 6 7 9 12 13 13 12 10 7 5 4 3 1 1 0 0 0 0 0 0 0 0 0 0 0 0 0 0 0 0
1 1 1 1 0 0 1 2 2 3 4 4 5 6 8 11 15 17 17 16 14 11 8 7 5 4 3 1 0 0 0 1 1 1 1 0 0 0 0 0 0 0 0
0 0 0 0 1 1 1 2 3 3 3 3 4 6 8 12 16 19 19 18 16 13 11 9 8 8 6 3 1 0 0 1 2 2 2 1 0 0 0 0 0 0 0
0 0 1 1 2 2 2 3 3 3 3 3 3 5 8 12 16 18 18 16 14 11 10 9 10 9 8 5 2 1 0 1 2 2 2 1 0 0 0 0 0 0 0
1 1 2 2 3 3 2 2 3 3 4 5 5 6 8 12 14 15 15 13 12 9 8 8 8 8 8 6 3 1 0 0 1 1 1 0 0 0 0 0 0 0 0
2 2 3 3 3 2 1 1 2 3 4 6 7 8 9 11 12 12 12 12 11 10 9 8 7 6 5 4 3 1 0 0 0 0 0 0 0 0 0 1 1 1 1
2 2 2 2 1 1 0 1 2 3 4 6 7 7 7 8 9 9 10 10 9 9 8 7 7 6 4 3 2 1 0 0 0 0 0 0 1 1 1 2 2 2 2
1 1 1 1 0 0 1 2 2 3 4 6 7 6 4 4 7 8 7 7 6 5 5 5 6 5 3 2 1 1 0 0 0 0 0 1 2 2 2 3 3 3 3
Wind_Speed
3 3 3 3 2 1 2 2 1 1 1 1 1 0 1 1 1 1 1 1 1 1 2 1 1 1 1 1 2 2 1 1 1 2 2 2 2 2 1 0 0 0 1
2 3 3 3 3 3 2 2 2 1 1 1 1 1 1 1 1 1 0 1 1 1 2 2 1 1 1 1 1 2 1 0 1 2 2 1 2 2 1 0 1 1 1
5 4 4 4 3 3 3 3 2 2 1 1 1 1 1 1 1 1 1 1 1 1 1 2 1 1 2 2 2 2 2 1 1 1 2 2 1 1 1 1 1 0 0
5 4 4 4 4 4 3 2 2 2 2 2 1 2 1 1 2 1 1 1 1 0 1 2 2 2 1 2 2 2 1 2 1 1 1 1 2 1 0 1 1 0 0
5 5 6 5 5 4 3 3 2 2 1 2 2 2 1 2 1 1 2 2 1 0 1 1 2 2 2 2 2 2 2 2 2 1 1 1 1 1 1 1 1 1 1
5 5 4 3 3 3 3 2 2 2 1 2 2 2 2 1 1 2 2 1 1 1 1 1 1 2 2 2 2 2 2 2 2 1 2 2 2 2 2 2 1 1 1
4 4 3 3 3 3 3 3 3 2 2 2 2 2 2 2 2 2 2 2 1 1 2 1 1 1 2 2 2 2 2 2 2 2 2 2 2 2 2 2 1 1 1
3 4 4 4 3 3 3 3 3 3 2 2 2 2 2 2 2 2 2 2 2 2 2 2 2 2 2 2 2 2 2 2 2 2 2 1 1 2 2 2 2 1 1
3 3 3 3 3 3 3 4 4 3 3 3 2 2 2 2 3 2 2 2 2 2 2 2 2 2 2 2 2 2 2 2 2 2 2 1 1 1 1 2 2 3 2
2 2 2 3 2 2 2 2 3 3 2 2 2 2 2 3 2 2 2 2 2 2 1 1 2 2 2 2 2 2 2 2 1 1 1 1 1 1 1 2 2 2 2
3 2 2 2 2 2 1 1 1 1 1 1 1 1 1 1 1 2 2 2 2 2 2 2 2 2 2 2 3 3 3 3 2 1 2 2 2 2 1 2 2 2 2
2 2 2 2 2 2 1 1 1 1 1 1 1 1 1 1 1 2 2 2 2 2 2 2 2 2 3 3 3 4 3 3 3 3 2 2 2 2 2 2 3 3 3
1 2 2 2 1 0 0 1 1 1 1 0 0 1 1 1 2 2 2 1 2 1 1 1 2 2 3 3 3 3 4 4 4 4 4 4 3 3 2 3 3 2 2
2 2 1 1 1 1 1 1 1 1 0 0 1 2 2 2 2 2 1 2 2 2 2 2 3 3 2 2 3 3 3 3 4 4 4 4 4 4 4 3 4 3 2
2 2 2 1 1 1 1 1 1 1 1 1 2 3 3 2 2 1 2 2 2 2 2 3 2 2 2 3 3 3 3 3 3 4 4 5 5 5 4 4 4 4 3
1 1 1 1 2 2 2 2 2 1 1 2 3 3 2 2 2 2 2 2 2 2 2 2 3 3 3 3 4 4 3 4 4 4 4 4 5 5 5 5 5 5 4
1 2 2 3 3 2 2 2 2 1 1 2 2 2 2 2 2 2 2 3 3 3 3 3 3 4 4 4 4 5 4 4 5 5 4 4 4 4 3 3 4 4 5
2 2 2 2 2 1 1 1 1 1 2 2 3 2 2 3 3 3 3 4 3 3 3 3 4 4 5 5 6 5 4 4 5 5 5 5 4 4 4 4 3 3 4
2 2 1 1 1 1 1 0 1 1 2 3 3 3 3 3 3 4 4 3 3 4 3 3 4 4 5 6 6 5 3 4 5 5 5 5 5 6 6 4 4 4 4
0 0 0 1 1 1 1 1 1 1 3 3 4 3 3 4 4 4 4 3 3 4 3 4 4 5 5 6 7 6 3 4 4 4 4 6 7 6 6 5 5 5 5
1 0 1 1 0 1 1 1 1 3 4 4 3 3 3 4 4 3 3 3 3 3 3 4 4 4 6 7 7 7 4 4 4 4 4 4 6 7 7 6 6 7 5
1 1 1 1 1 1 1 1 3 4 4 3 3 3 3 3 3 2 3 2 2 3 3 3 4 4 4 5 6 7 7 6 5 5 4 4 5 6 6 5 6 6 4
2 1 1 1 2 1 0 2 4 3 3 3 3 3 3 3 2 2 3 2 2 2 3 3 4 4 3 3 5 6 7 7 5 4 5 5 5 5 4 5 5 4 3
1 1 2 2 3 3 2 2 3 3 3 3 3 2 2 3 2 2 2 2 2 3 3 3 4 4 3 3 2 3 3 5 4 4 3 3 4 3 3 3 3 3 3
1 0 0 1 3 4 4 3 3 2 2 3 3 2 2 2 2 2 2 3 3 4 4 4 4 3 4 4 4 3 3 3 3 2 1 1 1 2 2 2 3 3 3
1 1 1 2 3 3 4 4 3 2 1 2 2 2 2 2 2 2 2 3 4 5 5 4 4 4 5 6 5 4 4 5 4 3 2 3 3 3 4 4 3 3 3
Wind_Direction
220 187 186 177 164 166 168 174 166 158 117 103 111 79 299 294 291 268 257 239 222 180 175 184 181 158 157 171 155 134 117 107 106 86 53 26 43 70 67 145 151 206 201
211 200 192 188 194 197 196 189 197 188 176 165 161 182 201 258 263 289 294 239 231 202 189 182 185 167 159 152 153 141 130 147 116 115 108 33 11 16 35 71 147 215 193
208 207 202 206 204 209 209 210 214 207 204 177 107 60 34 2 354 335 321 292 247 215 176 163 177 181 174 188 196 174 160 166 115 105 132 137 200 314 357 18 49 88 144
209 205 205 209 210 210 194 198 212 210 206 171 155 174 189 244 265 280 291 297 292 218 163 151 183 180 176 191 204 170 168 156 164 124 90 128 146 147 332 350 7 2 162
207 207 208 211 209 198 187 191 192 205 204 182 184 192 228 253 296 325 325 318 322 290 197 172 181 185 178 185 181 158 166 161 164 160 147 114 84 119 153 235 308 345 319
209 208 205 198 204 191 185 176 178 211 199 187 191 197 224 256 304 310 305 302 302 297 271 203 189 188 175 177 175 164 169 172 160 160 158 153 160 172 166 188 223 281 295
198 192 187 194 206 196 189 177 181 215 210 196 206 210 220 222 237 259 263 268 279 277 263 238 210 196 189 183 171 165 174 173 173 182 186 180 185 167 165 163 177 241 297
182 185 189 190 195 199 191 184 188 208 209 209 221 220 223 224 246 253 254 243 248 259 254 228 214 200 190 188 175 173 183 172 180 190 186 184 187 176 172 168 164 182 283
174 176 170 171 174 186 192 188 191 207 215 222 229 230 228 228 245 253 254 250 250 250 240 219 208 202 192 188 175 177 180 171 177 178 180 198 204 186 190 180 176 174 201
160 157 160 169 175 184 182 172 184 202 215 216 229 234 235 232 241 247 245 245 252 255 240 230 217 209 199 191 180 177 173 164 174 173 173 196 213 196 195 191 195 193 190
179 172 165 161 150 140 133 137 194 184 203 225 233 254 271 264 248 250 256 247 248 241 228 218 217 218 215 197 179 189 186 182 188 186 186 218 208 204 203 198 197 197 187
165 137 128 111 112 124 139 177 223 217 225 215 219 262 282 276 266 268 268 254 252 248 237 212 206 222 219 200 190 202 198 195 205 212 207 229 216 211 207 204 210 207 200
118 94 92 96 107 172 194 206 247 248 260 215 240 296 297 279 266 270 274 258 247 245 235 214 213 228 217 206 206 205 206 207 212 214 216 225 215 224 216 209 209 211 204
139 132 133 138 179 229 242 245 276 256 239 201 232 260 266 265 261 263 263 249 235 230 232 227 224 222 211 207 209 206 215 217 220 220 222 224 216 219 215 213 211 203 195
145 162 174 197 219 239 265 269 277 277 255 237 251 255 258 259 258 260 258 249 241 238 234 230 234 234 216 211 204 208 215 218 227 231 231 233 227 223 214 214 205 198 197
194 191 195 205 228 236 245 269 269 258 237 240 259 269 272 267 261 257 252 247 248 245 239 234 228 233 239 238 221 213 220 221 225 235 240 240 230 227 224 222 205 195 194
206 208 223 227 232 234 230 249 250 260 258 261 269 271 260 261 265 267 259 253 250 246 246 242 234 242 251 243 237 231 225 228 233 233 232 235 230 212 213 216 213 214 219
215 220 235 250 253 236 235 246 268 279 277 283 288 281 268 266 271 261 257 256 251 244 244 244 240 241 252 245 241 238 235 239 238 234 227 224 230 218 200 200 215 230 231
227 229 243 257 258 245 230 124 337 302 292 288 287 280 274 272 267 260 259 256 248 250 249 248 242 243 257 250 244 234 236 243 247 242 232 223 226 226 201 195 218 241 256
328 300 16 48 13 327 8 64 301 289 282 284 283 274 267 266 261 259 263 261 250 252 254 257 252 247 252 250 243 229 226 243 253 253 243 230 228 228 208 207 215 235 247
348 20 96 82 309 346 62 33 313 291 287 292 293 283 267 263 261 260 261 267 262 263 265 267 269 262 257 254 243 227 223 231 241 246 246 240 231 231 224 216 221 232 235
12 35 68 29 350 21 63 329 295 292 303 301 300 290 275 275 283 275 275 267 255 264 272 277 285 279 265 254 253 242 235 231 232 242 245 245 235 232 231 227 235 236 229
26 39 66 19 351 342 315 280 290 303 313 313 305 300 295 285 277 267 271 277 266 260 269 268 274 280 277 265 259 249 241 233 234 245 242 245 249 247 239 237 236 227 221
19 40 60 21 330 323 314 283 296 306 309 308 305 301 293 296 296 277 256 252 257 258 262 263 268 276 279 278 271 256 241 236 237 247 249 247 246 240 239 242 229 222 221
334 40 81 298 300 312 310 302 301 304 305 306 304 302 294 279 288 288 272 263 254 247 246 257 259 263 273 274 267 256 252 241 234 221 232 238 238 244 245 244 240 230 221
285 298 281 273 283 293 298 303 311 309 299 306 307 303 300 297 289 288 311 308 286 287 271 268 268 266 266 284 284 272 260 252 229 193 224 236 240 245 246 246 247 240 235